Location: Ca�n Batista
(41.4099°N, 1.7752°E)
Time: 13:08:44
(UTC+00:00)

Cosmos 2360 Rocket - Pass Details

Date: 03 March 2021
Orbit: 833 x 846 km, 71.0° (Epoch: 21 April)

Event Time Altitude Azimuth Distance (km) Brightness Sun altitude
Rises 18:34:45 0° 190° (S) 3,370 5.5 -9.9°
Reaches altitude 10° 18:37:13 10° 187° (S) 2,442 4.7 -10.4°
Maximum altitude 18:42:42 58° 109° (ESE) 973 2.2 -11.4°
Drops below altitude 10° 18:48:14 10° 31° (NNE) 2,467 4.3 -12.5°
Sets 18:50:43 0° 28° (NNE) 3,408 5.1 -12.9°
